SCP
0 0 0 0 0 0 0 -0 0 0 0 0 0 -0 -0 -0 -0 -0 -0 -0 -0 -0 -0 -0 -0 -0 -0 -0 -0 -0 -0 0 -0 0 0 -0 -0 0 -0 0 -0 -0 -0
0 0 -0 0 0 0 0 -0 -0 0 0 0 0 0 -0 -0 -0 -0 -0 -0 -0 -0 -0 -0 -0 -0 -0 -0 0 0 -0 -0 0 -0 -0 -0 -0 -0 -0 -0 -0 -0 -0
0 0 -0 -0 -0 0 0 -0 -0 -0 -0 -0 -0 -0 -0 -0 -0 -0 -0 -0 -0 -0 -0 -0 -0 -0 -0 -0 0 0 -0 0 0 0 -0 0 -0 -0 -0 -0 -0 -0 -0
0 0 0 -0 -0 -0 -0 -0 -0 -0 -0 -0 -0 -0 -0 -0 -0 -0 -0 -0 -0 -0 -0 -0 -0 -0 -0 -0 0 0 0 0 0 0 -0 -0 -0 -0 -0 -0 -0 -0 -0
0 0 0 0 -0 0 -0 -0 0 -0 -0 -0 -0 0 0 0 0 -0 -0 -0 -0 -0 -0 -0 -0 -0 -0 0 0 0 0 0 0 0 -0 0 0 -0 -0 -0 -0 -0 -0
-0 -0 0 -0 -0 -0 -0 0 0 0 -0 -0 0 0 0 0 0 0 0 -0 -0 -0 0 -0 0 0 0 0 0 0 0 0 0 0 -0 -0 -0 -0 -0 -0 -0 -0 -0
-0 -0 0 -0 0 0 0 -0 0 0 -0 0 0 0 0 0 0 0 0 0 -0 -0 -0 -0 0 0 0 0 0 0 0 0 -0 -0 -0 -0 -0 -0 -0 -0 -0 -0 -0
-0 -0 0 0 -0 0 0 0 -0 0 -0 0 0 0 0 0 0 0 0 0 0 0 0 0 0 0 0 0 0 0 0 0 -0 -0 -0 -0 -0 -0 -0 -0 -0 -0 -0
-0 -0 0 0 0 0 0 -0 0 0 0 -0 -0 -0 -0 -0 -0 0 0 0 0 0 0 0 0 0 0 0 0 0 0 -0 -0 0 -0 -0 -0 -0 -0 -0 -0 -0 -0
-0 0 -0 0 -0 -0 -0 0 0 0 -0 -0 -0 -0 -0 -0 -0 -0 0 0 0 0 0 0 0 0 0 0 0 0 0 0 -0 -0 -0 -0 -0 -0 -0 -0 -0 -0 -0
-0 0 0 -0 0 -0 -0 -0 -0 -0 -0 -0 -0 -0 -0 0 0 -0 0 0 0 0 0 0 0 0 0 0 0 0 0 0 0 -0 -0 -0 -0 -0 -0 -0 -0 -0 -0
-0 0 -0 -0 -0 0 -0 0 0 0 0 0 0 -0 0 0 0 0 0 0 0 -0 -0 0 0 -0 -0 0 0 0 0 0 -0 -0 0 -0 -0 -0 -0 -0 0 0 0
0 -0 -0 -0 0 0 0 -0 0 -0 -0 0 0 -0 0 0 -0 0 0 0 0 -0 -0 0 0 0 -0 0 0 0 0 0 0 0 -0 -0 -0 0 0 0 0 0 0
0 0 -0 -0 -0 -0 -0 -0 0 -0 -0 0 0 0 0 0 0 0 0 0 0 -0 -0 -0 0 0 0 0 0 0 0 0 0 -0 0 0 0 0 0 0 0 0 0
-0 0 -0 -0 -0 -0 0 0 0 -0 -0 -0 0 -0 0 0 0 0 0 0 0 -0 0 0 0 0 0 0 0 0 0 -0 0 -0 -0 0 0 0 0 0 0 0 0
-0 0 -0 -0 0 0 0 0 0 0 0 0 -0 0 0 0 0 0 0 0 0 -0 0 0 0 0 0 0 0 -0 0 0 0 0 0 0 0 0 0 0 0 0 0
-0 0 0 0 0 0 0 0 0 0 0 0 0 0 0 0 0 0 0 0 0 -0 0 -0 0 0 0 0 0 -0 -0 -0 -0 0 0 0 0 0 0 0 0 0 0
0 0 0 -0 -0 0 0 0 0 0 -0 -0 -0 0 0 0 0 0 0 0 0 0 0 0 0 0 0 0 0 -0 0 0 0 0 0 0 0 0 0 0 0 0 0
0 0 0 0 -0 0 0 -0 0 0 0 -0 0 0 0 0 0 0 0 0 0 0 0 0 0 0 0 0 0 0 0 0 0 0 0 0 0 0 0 0 0 0 0
0 0 0 0 0 0 0 -0 0 -0 0 0 0 0 0 0 0 0 0 0 0 0 -0 0 0 0 0 0 0 0 0 0 0 0 0 0 0 0 1 0 0 0 0
0 0 0 0 0 0 0 -0 0 -0 -0 -0 0 0 0 -0 0 0 0 0 0 -0 0 0 0 0 0 0 0 0 0 0 0 0 0 0 0 0 0 0 1 1 0
0 0 0 0 0 0 0 -0 -0 -0 0 -0 -0 0 0 -0 0 -0 0 0 0 0 0 0 -0 0 0 -0 0 0 0 0 0 0 0 0 0 0 0 0 1 1 1
0 0 0 0 0 0 0 -0 0 -0 -0 -0 0 0 -0 0 0 -0 0 0 0 0 0 0 0 0 0 0 0 0 0 0 0 0 0 0 0 0 0 1 1 1 1
0 0 0 1 1 0 0 -0 0 0 -0 -0 0 -0 0 0 0 -0 -0 -0 0 0 -0 0 0 0 0 0 -0 0 0 0 0 0 1 1 0 0 0 0 1 1 1
0 0 0 0 1 0 0 0 0 -0 -0 -0 -0 0 -0 0 0 -0 -0 -0 -0 0 0 -0 -0 -0 0 0 -0 -0 0 0 0 0 0 1 1 1 1 1 0 1 1
0 0 0 0 1 0 0 0 0 -0 0 0 0 0 0 0 0 -0 -0 -0 -0 -0 -0 -0 0 -0 -0 0 0 -0 0 0 0 0 0 0 0 0 0 0 0 0 1
Wind_Speed_500mb
41 38 35 33 31 29 24 20 19 19 17 18 16 17 17 17 17 20 19 18 16 15 16 16 19 19 18 20 22 24 29 31 34 37 35 37 35 38 44 37 28 37 37
43 42 36 30 29 29 23 21 21 22 18 14 15 15 15 17 21 21 20 21 20 17 16 16 15 13 16 17 21 25 26 32 37 41 38 29 33 36 34 25 31 35 33
41 43 35 32 30 28 23 18 19 20 17 14 12 12 14 19 18 20 21 20 22 20 20 23 20 17 19 21 22 26 29 32 42 41 35 26 31 29 28 28 35 33 37
43 40 39 35 29 25 21 18 16 15 14 12 11 13 17 17 20 21 19 21 26 25 25 28 23 28 25 24 29 33 34 37 40 29 34 17 28 31 32 32 35 33 33
44 35 38 35 30 27 24 19 18 18 18 18 19 19 19 19 21 21 22 24 25 28 27 27 28 27 23 28 38 43 39 39 30 23 25 19 23 31 31 33 32 31 29
47 37 38 34 31 29 25 21 20 21 22 22 23 22 22 22 21 23 22 23 26 27 30 29 26 25 28 31 39 45 44 29 27 23 23 20 23 27 28 26 25 24 28
45 41 39 32 30 29 27 25 24 23 24 24 25 24 24 23 22 23 22 23 27 29 30 30 28 24 25 28 42 43 35 37 23 15 12 18 25 25 26 26 25 27 28
45 39 39 34 30 29 25 23 22 24 24 25 24 25 26 24 24 24 22 23 23 27 27 28 28 28 29 31 42 42 36 30 21 18 14 21 26 25 25 26 28 29 28
48 37 37 34 28 27 27 27 23 24 23 23 23 24 25 27 29 27 26 23 24 26 27 26 27 29 32 35 41 36 40 42 20 22 19 23 24 23 23 25 26 23 23
47 34 32 28 26 28 28 26 24 24 23 24 24 24 26 26 28 30 25 24 24 27 28 26 25 27 33 47 48 38 26 30 27 15 7 20 22 21 21 22 22 21 20
41 39 32 27 31 18 25 27 25 23 26 29 30 29 28 17 19 22 21 24 26 28 30 27 25 29 33 30 35 39 32 21 23 8 17 19 21 21 21 20 19 17 16
47 46 40 30 33 26 23 26 25 29 27 26 26 29 29 15 12 18 17 26 30 33 31 26 25 32 35 24 18 28 32 30 14 15 10 15 19 18 20 19 17 17 14
46 46 43 39 30 41 18 28 23 17 16 15 9 15 11 15 13 8 13 27 30 30 29 18 11 28 19 17 29 35 35 21 5 18 9 14 16 16 17 15 15 14 12
49 46 49 39 33 41 20 28 20 19 18 4 17 20 14 12 5 13 11 8 9 15 25 24 13 27 32 30 33 20 15 15 2 18 11 11 13 13 12 10 11 12 10
48 50 42 40 36 43 27 23 27 19 13 23 8 8 4 13 10 5 10 7 13 16 4 24 18 9 9 20 18 20 22 17 8 14 21 13 11 9 10 9 8 7 7
49 49 42 39 36 38 25 27 28 20 22 7 12 8 1 9 9 6 3 8 12 15 21 26 12 26 22 20 14 11 19 23 13 14 15 20 17 14 10 7 7 7 6
52 48 42 39 38 45 29 35 28 19 17 15 21 8 4 8 13 9 5 7 15 18 20 13 16 10 16 16 19 13 16 9 9 3 12 14 15 22 17 12 6 3 2
53 52 43 38 36 42 23 45 26 16 20 16 9 6 3 3 14 11 6 10 8 13 13 10 6 12 19 22 21 18 7 6 10 17 6 12 12 13 12 19 14 9 8
53 56 46 44 41 35 31 44 23 22 17 13 15 1 5 6 9 12 6 3 15 8 13 12 27 15 9 12 11 14 4 12 5 11 4 2 11 10 14 14 13 13 17
54 56 50 47 45 38 33 42 25 19 23 20 14 12 8 2 7 17 4 13 16 12 14 21 15 18 10 18 13 14 10 8 7 15 6 12 6 4 11 16 3 14 13
58 56 57 52 51 44 39 45 29 19 25 14 19 17 16 3 5 16 7 21 10 7 22 14 9 3 8 6 15 7 6 11 11 9 2 9 8 11 8 21 10 10 13
64 61 64 58 52 50 39 41 35 29 25 21 22 21 18 11 9 8 10 11 17 1 13 11 21 12 10 14 11 6 11 12 8 14 6 5 6 10 13 10 6 16 23
70 67 67 63 56 54 47 41 38 36 29 28 32 28 20 15 11 11 8 5 15 14 7 13 10 8 9 8 7 6 4 3 17 9 8 7 8 10 8 16 23 22 12
71 69 66 72 65 63 51 46 50 43 36 38 28 24 20 22 16 14 13 11 9 16 9 9 12 7 11 11 12 2 3 9 1 10 5 8 2 1 8 15 24 23 24
70 73 70 69 70 64 64 51 51 47 42 34 29 31 33 24 24 21 10 12 8 14 16 16 15 15 17 5 8 4 5 3 6 11 8 14 7 2 9 10 2 17 24
75 74 74 72 76 73 69 62 58 57 45 36 35 39 33 22 32 26 17 17 13 16 15 14 18 24 22 15 12 13 7 4 12 10 14 7 4 6 7 11 15 17 19
Wind_Direction_500mb
155 160 150 135 133 135 133 131 148 147 134 117 102 90 77 71 71 72 72 70 70 77 91 88 88 92 97 93 89 84 79 74 74 78 79 88 86 90 91 82 80 82 83
149 163 151 137 137 144 137 123 119 144 140 114 104 87 74 72 80 74 74 75 73 75 85 102 112 106 105 97 91 90 84 78 71 74 71 82 84 86 89 83 80 85 83
150 154 144 141 141 139 139 133 123 122 119 110 94 82 82 82 77 78 79 71 65 75 83 91 101 101 111 109 103 95 95 88 83 67 72 63 84 85 86 85 85 82 86
146 140 141 140 137 134 130 124 124 124 126 120 112 105 100 92 87 87 78 68 73 77 93 97 95 104 104 111 106 105 101 84 86 67 99 56 85 92 90 88 90 82 89
135 148 140 138 138 134 131 130 132 128 126 131 126 117 108 101 98 89 86 79 74 82 96 100 99 103 110 108 109 107 95 89 90 92 102 84 83 92 90 90 86 90 86
143 163 142 140 141 136 127 128 127 129 133 130 125 120 112 107 95 88 86 87 83 89 94 99 98 97 99 102 117 111 94 97 102 113 112 109 85 88 92 93 90 94 92
141 149 140 137 137 136 136 126 124 120 125 122 122 123 119 112 101 93 93 94 92 95 94 101 98 97 96 101 120 113 100 101 114 107 82 96 97 95 94 91 92 96 99
134 137 136 135 136 134 134 134 129 127 124 127 130 130 125 116 108 105 104 105 107 101 101 100 96 94 96 98 119 117 104 103 107 107 69 104 98 99 96 94 99 98 100
134 139 135 137 140 136 130 127 126 132 135 132 131 132 122 116 103 101 105 109 114 111 106 101 94 95 94 98 116 105 99 96 105 88 89 100 99 100 100 100 101 98 98
139 137 143 135 139 135 134 132 131 136 133 124 121 114 104 96 99 100 96 104 112 113 103 100 100 100 97 103 108 100 98 110 97 112 101 101 102 103 104 104 107 102 98
141 146 142 140 119 139 131 131 134 131 124 120 111 111 94 81 88 91 98 101 108 113 107 108 119 108 105 104 113 104 91 115 121 77 106 100 104 106 106 108 106 97 97
151 155 150 150 151 131 146 130 119 114 116 113 109 118 134 122 116 40 91 97 104 108 109 125 115 123 112 95 127 101 100 123 112 21 106 100 112 109 113 104 108 105 104
154 159 161 151 138 151 112 106 110 124 126 153 114 97 103 120 112 105 89 102 95 110 125 102 67 94 121 127 90 83 98 144 204 32 88 102 102 111 116 112 117 115 111
162 153 153 144 156 159 137 137 172 117 144 111 129 103 163 171 123 120 155 122 154 120 147 99 92 63 59 78 85 101 112 111 28 39 65 97 108 108 110 109 114 119 113
166 156 153 160 178 155 162 171 166 154 165 174 153 177 151 169 98 69 119 42 159 147 131 109 95 153 111 96 116 115 116 120 28 43 54 65 84 101 114 107 106 110 109
169 160 166 165 163 161 156 157 155 173 160 183 137 178 48 141 137 84 149 115 24 137 108 105 105 110 131 136 116 124 112 117 94 44 46 59 69 61 65 81 105 104 106
172 165 168 166 177 168 166 170 143 193 146 201 184 194 329 156 159 129 48 48 38 48 90 94 112 151 108 163 124 102 117 87 142 7 33 42 50 44 46 36 31 42 27
175 171 169 171 176 171 174 172 159 153 187 218 207 237 282 93 125 88 39 96 107 68 127 133 124 82 93 116 106 123 172 81 64 147 26 337 26 24 25 32 22 21 12
179 174 174 177 176 177 186 162 152 195 172 184 166 91 193 40 110 127 116 238 98 61 108 120 97 135 150 173 136 122 205 139 256 137 223 137 354 332 339 10 31 33 24
180 178 178 176 183 181 194 162 156 189 187 179 192 175 154 195 137 121 178 130 113 171 140 77 123 107 104 94 154 142 99 172 179 152 314 158 154 294 301 329 348 358 353
181 183 179 177 192 189 194 172 164 192 168 182 194 157 143 253 134 140 129 141 108 176 154 111 162 168 229 115 167 160 133 82 137 174 266 187 351 130 244 328 7 336 322
185 189 183 185 195 200 193 176 173 188 173 178 182 202 246 174 235 138 145 137 138 107 172 163 163 144 106 191 163 240 188 167 125 168 164 155 187 220 273 325 310 283 285
185 191 191 189 197 202 182 179 182 190 188 195 205 219 189 195 195 203 184 224 167 179 156 189 163 182 132 174 293 0 309 16 165 211 37 178 271 168 267 287 317 343 352
188 190 199 192 199 204 183 190 186 191 194 199 226 196 193 198 195 219 232 214 164 160 207 169 171 142 173 190 237 12 19 90 67 85 202 240 158 175 225 251 277 312 327
190 188 200 201 199 206 191 191 191 187 197 204 197 207 201 196 190 222 242 202 190 173 191 174 208 197 147 144 163 169 135 88 106 343 295 229 264 304 298 326 241 300 306
193 191 194 206 206 208 198 188 199 188 195 198 197 190 187 208 197 200 223 236 225 190 200 226 202 191 185 180 152 165 158 133 272 279 309 289 339 237 276 301 281 294 287
Wind_Speed_850mb
41 38 35 33 31 29 24 20 19 19 17 18 16 17 17 17 17 20 19 18 16 15 16 16 19 19 18 20 22 24 29 31 34 37 35 37 35 38 44 37 28 37 37
43 42 36 30 29 29 23 21 21 22 18 14 15 15 15 17 21 21 20 21 20 17 16 16 15 13 16 17 21 25 26 32 37 41 38 29 33 36 34 25 31 35 33
41 43 35 32 30 28 23 18 19 20 17 14 12 12 14 19 18 20 21 20 22 20 20 23 20 17 19 21 22 26 29 32 42 41 35 26 31 29 28 28 35 33 37
43 40 39 35 29 25 21 18 16 15 14 12 11 13 17 17 20 21 19 21 26 25 25 28 23 28 25 24 29 33 34 37 40 29 34 17 28 31 32 32 35 33 33
44 35 38 35 30 27 24 19 18 18 18 18 19 19 19 19 21 21 22 24 25 28 27 27 28 27 23 28 38 43 39 39 30 23 25 19 23 31 31 33 32 31 29
47 37 38 34 31 29 25 21 20 21 22 22 23 22 22 22 21 23 22 23 26 27 30 29 26 25 28 31 39 45 44 29 27 23 23 20 23 27 28 26 25 24 28
45 41 39 32 30 29 27 25 24 23 24 24 25 24 24 23 22 23 22 23 27 29 30 30 28 24 25 28 42 43 35 37 23 15 12 18 25 25 26 26 25 27 28
45 39 39 34 30 29 25 23 22 24 24 25 24 25 26 24 24 24 22 23 23 27 27 28 28 28 29 31 42 42 36 30 21 18 14 21 26 25 25 26 28 29 28
48 37 37 34 28 27 27 27 23 24 23 23 23 24 25 27 29 27 26 23 24 26 27 26 27 29 32 35 41 36 40 42 20 22 19 23 24 23 23 25 26 23 23
47 34 32 28 26 28 28 26 24 24 23 24 24 24 26 26 28 30 25 24 24 27 28 26 25 27 33 47 48 38 26 30 27 15 7 20 22 21 21 22 22 21 20
41 39 32 27 31 18 25 27 25 23 26 29 30 29 28 17 19 22 21 24 26 28 30 27 25 29 33 30 35 39 32 21 23 8 17 19 21 21 21 20 19 17 16
47 46 40 30 33 26 23 26 25 29 27 26 26 29 29 15 12 18 17 26 30 33 31 26 25 32 35 24 18 28 32 30 14 15 10 15 19 18 20 19 17 17 14
46 46 43 39 30 41 18 28 23 17 16 15 9 15 11 15 13 8 13 27 30 30 29 18 11 28 19 17 29 35 35 21 5 18 9 14 16 16 17 15 15 14 12
49 46 49 39 33 41 20 28 20 19 18 4 17 20 14 12 5 13 11 8 9 15 25 24 13 27 32 30 33 20 15 15 2 18 11 11 13 13 12 10 11 12 10
48 50 42 40 36 43 27 23 27 19 13 23 8 8 4 13 10 5 10 7 13 16 4 24 18 9 9 20 18 20 22 17 8 14 21 13 11 9 10 9 8 7 7
49 49 42 39 36 38 25 27 28 20 22 7 12 8 1 9 9 6 3 8 12 15 21 26 12 26 22 20 14 11 19 23 13 14 15 20 17 14 10 7 7 7 6
52 48 42 39 38 45 29 35 28 19 17 15 21 8 4 8 13 9 5 7 15 18 20 13 16 10 16 16 19 13 16 9 9 3 12 14 15 22 17 12 6 3 2
53 52 43 38 36 42 23 45 26 16 20 16 9 6 3 3 14 11 6 10 8 13 13 10 6 12 19 22 21 18 7 6 10 17 6 12 12 13 12 19 14 9 8
53 56 46 44 41 35 31 44 23 22 17 13 15 1 5 6 9 12 6 3 15 8 13 12 27 15 9 12 11 14 4 12 5 11 4 2 11 10 14 14 13 13 17
54 56 50 47 45 38 33 42 25 19 23 20 14 12 8 2 7 17 4 13 16 12 14 21 15 18 10 18 13 14 10 8 7 15 6 12 6 4 11 16 3 14 13
58 56 57 52 51 44 39 45 29 19 25 14 19 17 16 3 5 16 7 21 10 7 22 14 9 3 8 6 15 7 6 11 11 9 2 9 8 11 8 21 10 10 13
64 61 64 58 52 50 39 41 35 29 25 21 22 21 18 11 9 8 10 11 17 1 13 11 21 12 10 14 11 6 11 12 8 14 6 5 6 10 13 10 6 16 23
70 67 67 63 56 54 47 41 38 36 29 28 32 28 20 15 11 11 8 5 15 14 7 13 10 8 9 8 7 6 4 3 17 9 8 7 8 10 8 16 23 22 12
71 69 66 72 65 63 51 46 50 43 36 38 28 24 20 22 16 14 13 11 9 16 9 9 12 7 11 11 12 2 3 9 1 10 5 8 2 1 8 15 24 23 24
70 73 70 69 70 64 64 51 51 47 42 34 29 31 33 24 24 21 10 12 8 14 16 16 15 15 17 5 8 4 5 3 6 11 8 14 7 2 9 10 2 17 24
75 74 74 72 76 73 69 62 58 57 45 36 35 39 33 22 32 26 17 17 13 16 15 14 18 24 22 15 12 13 7 4 12 10 14 7 4 6 7 11 15 17 19
Wind_Direction_850mb
155 160 150 135 133 135 133 131 148 147 134 117 102 90 77 71 71 72 72 70 70 77 91 88 88 92 97 93 89 84 79 74 74 78 79 88 86 90 91 82 80 82 83
149 163 151 137 137 144 137 123 119 144 140 114 104 87 74 72 80 74 74 75 73 75 85 102 112 106 105 97 91 90 84 78 71 74 71 82 84 86 89 83 80 85 83
150 154 144 141 141 139 139 133 123 122 119 110 94 82 82 82 77 78 79 71 65 75 83 91 101 101 111 109 103 95 95 88 83 67 72 63 84 85 86 85 85 82 86
146 140 141 140 137 134 130 124 124 124 126 120 112 105 100 92 87 87 78 68 73 77 93 97 95 104 104 111 106 105 101 84 86 67 99 56 85 92 90 88 90 82 89
135 148 140 138 138 134 131 130 132 128 126 131 126 117 108 101 98 89 86 79 74 82 96 100 99 103 110 108 109 107 95 89 90 92 102 84 83 92 90 90 86 90 86
143 163 142 140 141 136 127 128 127 129 133 130 125 120 112 107 95 88 86 87 83 89 94 99 98 97 99 102 117 111 94 97 102 113 112 109 85 88 92 93 90 94 92
141 149 140 137 137 136 136 126 124 120 125 122 122 123 119 112 101 93 93 94 92 95 94 101 98 97 96 101 120 113 100 101 114 107 82 96 97 95 94 91 92 96 99
134 137 136 135 136 134 134 134 129 127 124 127 130 130 125 116 108 105 104 105 107 101 101 100 96 94 96 98 119 117 104 103 107 107 69 104 98 99 96 94 99 98 100
134 139 135 137 140 136 130 127 126 132 135 132 131 132 122 116 103 101 105 109 114 111 106 101 94 95 94 98 116 105 99 96 105 88 89 100 99 100 100 100 101 98 98
139 137 143 135 139 135 134 132 131 136 133 124 121 114 104 96 99 100 96 104 112 113 103 100 100 100 97 103 108 100 98 110 97 112 101 101 102 103 104 104 107 102 98
141 146 142 140 119 139 131 131 134 131 124 120 111 111 94 81 88 91 98 101 108 113 107 108 119 108 105 104 113 104 91 115 121 77 106 100 104 106 106 108 106 97 97
151 155 150 150 151 131 146 130 119 114 116 113 109 118 134 122 116 40 91 97 104 108 109 125 115 123 112 95 127 101 100 123 112 21 106 100 112 109 113 104 108 105 104
154 159 161 151 138 151 112 106 110 124 126 153 114 97 103 120 112 105 89 102 95 110 125 102 67 94 121 127 90 83 98 144 204 32 88 102 102 111 116 112 117 115 111
162 153 153 144 156 159 137 137 172 117 144 111 129 103 163 171 123 120 155 122 154 120 147 99 92 63 59 78 85 101 112 111 28 39 65 97 108 108 110 109 114 119 113
166 156 153 160 178 155 162 171 166 154 165 174 153 177 151 169 98 69 119 42 159 147 131 109 95 153 111 96 116 115 116 120 28 43 54 65 84 101 114 107 106 110 109
169 160 166 165 163 161 156 157 155 173 160 183 137 178 48 141 137 84 149 115 24 137 108 105 105 110 131 136 116 124 112 117 94 44 46 59 69 61 65 81 105 104 106
172 165 168 166 177 168 166 170 143 193 146 201 184 194 329 156 159 129 48 48 38 48 90 94 112 151 108 163 124 102 117 87 142 7 33 42 50 44 46 36 31 42 27
175 171 169 171 176 171 174 172 159 153 187 218 207 237 282 93 125 88 39 96 107 68 127 133 124 82 93 116 106 123 172 81 64 147 26 337 26 24 25 32 22 21 12
179 174 174 177 176 177 186 162 152 195 172 184 166 91 193 40 110 127 116 238 98 61 108 120 97 135 150 173 136 122 205 139 256 137 223 137 354 332 339 10 31 33 24
180 178 178 176 183 181 194 162 156 189 187 179 192 175 154 195 137 121 178 130 113 171 140 77 123 107 104 94 154 142 99 172 179 152 314 158 154 294 301 329 348 358 353
181 183 179 177 192 189 194 172 164 192 168 182 194 157 143 253 134 140 129 141 108 176 154 111 162 168 229 115 167 160 133 82 137 174 266 187 351 130 244 328 7 336 322
185 189 183 185 195 200 193 176 173 188 173 178 182 202 246 174 235 138 145 137 138 107 172 163 163 144 106 191 163 240 188 167 125 168 164 155 187 220 273 325 310 283 285
185 191 191 189 197 202 182 179 182 190 188 195 205 219 189 195 195 203 184 224 167 179 156 189 163 182 132 174 293 0 309 16 165 211 37 178 271 168 267 287 317 343 352
188 190 199 192 199 204 183 190 186 191 194 199 226 196 193 198 195 219 232 214 164 160 207 169 171 142 173 190 237 12 19 90 67 85 202 240 158 175 225 251 277 312 327
190 188 200 201 199 206 191 191 191 187 197 204 197 207 201 196 190 222 242 202 190 173 191 174 208 197 147 144 163 169 135 88 106 343 295 229 264 304 298 326 241 300 306
193 191 194 206 206 208 198 188 199 188 195 198 197 190 187 208 197 200 223 236 225 190 200 226 202 191 185 180 152 165 158 133 272 279 309 289 339 237 276 301 281 294 287